Location: Newark
(45.7425°N, 0.7617°W)
Time: 00:10:41
(UTC+00:00)

N. Korean satellite - Visible Passes

Search period start: 25 January 2020 00:00
Search period end: 04 February 2020 00:00
Orbit: 454 x 507 km, 97.2° (Epoch: 24 January)

Date Brightness Start Highest point End Pass type
(mag) Time Alt. Az. Time Alt. Az. Time Alt. Az.
25 Jan 7.1 05:44:40 10° NNE 05:48:13 59° E 05:51:47 10° S visible
25 Jan 9.7 17:56:46 10° SW 17:59:07 17° W 18:01:29 10° NW visible
26 Jan 8.7 05:19:29 10° NE 05:22:38 28° E 05:25:49 10° SSE visible
26 Jan 7.8 06:53:10 10° NNW 06:55:53 21° WNW 06:58:36 10° WSW visible
26 Jan 8.4 17:30:19 10° SSW 17:33:27 34° W 17:36:39 10° NNW visible
27 Jan 9.8 04:54:50 10° NE 04:56:58 15° E 04:59:07 10° SE visible
27 Jan 7.0 06:27:09 10° N 06:30:31 39° WNW 06:33:55 10° SW visible
28 Jan 6.5 06:01:28 10° N 06:05:05 83° WNW 06:08:44 10° SSW visible
28 Jan 10.2 18:15:09 10° WSW 18:16:07 11° W 18:17:06 10° WNW visible
29 Jan 7.7 05:36:04 10° NNE 05:39:34 46° E 05:43:05 10° S visible
29 Jan 9.4 17:47:41 10° SSW 17:50:23 22° W 17:53:08 10° NW visible
30 Jan 9.1 05:11:00 10° NE 05:13:57 23° E 05:16:56 10° SSE visible
30 Jan 7.6 06:44:17 10° NNW 06:47:17 25° WNW 06:50:20 10° SW visible
31 Jan 10.0 04:46:44 10° ENE 04:48:15 12° E 04:49:47 10° ESE visible
31 Jan 6.7 06:18:24 10° N 06:21:55 50° WNW 06:25:28 10° SSW visible
01 Feb 6.7 05:52:48 10° NNE 05:56:27 78° ESE 06:00:07 10° S visible
01 Feb 9.9 18:05:30 10° SW 18:07:21 14° W 18:09:14 10° WNW visible
02 Feb 8.2 05:27:29 10° NNE 05:30:53 36° E 05:34:19 10° SSE visible
02 Feb 9.0 17:38:41 10° SSW 17:41:39 27° W 17:44:41 10° NW visible
03 Feb 9.5 05:02:34 10° NE 05:05:15 19° E 05:07:56 10° SE visible
03 Feb 7.3 06:35:25 10° N 06:38:41 31° WNW 06:41:59 10° SW visible
